Flag for Germany Weather past 2 weeks in Neunkirchen (Saar), Saarland, Germany

Now
43 °F

Passing clouds.


Feels Like: 38 °F
Forecast: 26 / 58 °F
Wind: 8 mph from Northwest

Location: Saarbruecken / Ensheim

Current Time: Apr 28, 2015 at 3:21:54 AM

Latest Report: Apr 28, 2015 at 2:50 AM


Visibility: N/A

Pressure: 29.80 "Hg

Humidity: 93%

Dew point: 41 °F

Location of Neunkirchen (Saar)Location

Historic Weather in Neunkirchen (Saar) — Graph

°F

Neunkirchen (Saar) temperature yesterday

Maximum temperature yesterday: 57 °F (at 12:20 AM)
Minimum temperature yesterday: 43 °F (at 11:20 PM)
Average temperature yesterday: 51 °F

Past Weeks' High & Low Weather Summary

 TemperatureHumidityPressure
High75 °F (Apr 15, 2:50 PM)100% (Apr 26, 8:50 AM)30.45 "Hg (Apr 26, 8:50 AM)
Low36 °F (Apr 19, 4:50 AM)19% (Apr 15, 4:20 PM)29.59 "Hg (Apr 27, 2:50 AM)
Average55 °F57%30.07 "Hg
* Reported Apr 13 1:20 AM — Apr 28 1:50 AM, Neunkirchen (Saar), Weather by CustomWeather, © 2015

Note: Actual official high and low records may vary slightly from our data, if they occured in-between our weather recording intervals... More about our weather records

Advertising

Neunkirchen (Saar) weather history for previous 24 hours

 ConditionsComfort  
Time TempWeatherWind HumidityBarometerVisibility
1:50 AM
Tue, Apr 28
43 °FOvercast.6 mph93%29.77 "HgN/A
1:20 AM43 °FOvercast.7 mph93%29.77 "HgN/A
12:50 AM43 °FOvercast.6 mph93%29.77 "HgN/A
12:20 AM43 °FPassing clouds.8 mph93%29.74 "HgN/A
11:50 PM
Mon, Apr 27
43 °FPassing clouds.8 mph93%29.74 "HgN/A
11:20 PM43 °FPassing clouds.13 mph93%29.71 "HgN/A
10:50 PM45 °FPassing clouds.12 mph87%29.74 "HgN/A
10:20 PM45 °FLight rain. Partly cloudy.10 mph93%29.71 "HgN/A
9:50 PM45 °FPartly cloudy.12 mph93%29.71 "HgN/A
9:20 PM45 °FLight rain. Broken clouds.9 mph93%29.71 "HgN/A
8:50 PM46 °FLight rain. Partly sunny.10 mph87%29.68 "HgN/A
8:20 PM46 °FLight rain. Partly sunny.10 mph93%29.68 "HgN/A
7:50 PM46 °FLight rain. Broken clouds.10 mph93%29.65 "Hg5 mi
7:20 PM48 °FLight rain. Partly sunny.10 mph94%29.65 "Hg5 mi
6:50 PM48 °FLight rain. Partly sunny.8 mph94%29.65 "Hg5 mi
6:20 PM48 °FLight rain. Broken clouds.10 mph94%29.65 "Hg5 mi
5:50 PM48 °FLight rain. Mostly cloudy.10 mph94%29.65 "Hg5 mi
5:20 PM50 °FLight rain. Mostly cloudy.12 mph88%29.62 "Hg5 mi
4:50 PM50 °FLight rain. Mostly cloudy.13 mph94%29.62 "Hg5 mi
4:20 PM52 °FLight rain. Mostly cloudy.9 mph88%29.62 "Hg5 mi
3:50 PM52 °FLight rain. Mostly cloudy.9 mph88%29.62 "Hg6 mi
3:20 PM52 °FLight rain. Mostly cloudy.13 mph94%29.62 "Hg5 mi
2:50 PM54 °FLight rain. Partly sunny.12 mph88%29.62 "Hg5 mi
2:20 PM52 °FRain. Partly sunny.14 mph94%29.59 "Hg4 mi
1:50 PM52 °FRain. Broken clouds.13 mph94%29.62 "Hg4 mi
1:20 PM52 °FRain. Partly sunny.13 mph94%29.59 "Hg4 mi
12:50 PM52 °FLight rain. Partly sunny.12 mph94%29.62 "Hg5 mi
12:20 PM52 °FLight rain. Fog.14 mph94%29.59 "Hg3 mi
11:50 AM52 °FLight rain. Broken clouds.13 mph88%29.62 "Hg5 mi
11:20 AM54 °FLight rain. Partly sunny.13 mph88%29.59 "Hg4 mi
10:50 AM55 °FLight rain. Broken clouds.2 mph88%29.59 "Hg4 mi
10:20 AM54 °FLight rain. Fog.5 mph94%29.59 "Hg3 mi
9:50 AM54 °FLight rain. Fog.7 mph94%29.59 "Hg3 mi
9:20 AM54 °FLight rain. Fog.5 mph94%29.59 "Hg3 mi
8:50 AM54 °FLight rain. Fog.6 mph94%29.59 "Hg3 mi
8:20 AM54 °FLight rain. Fog.5 mph94%29.59 "Hg3 mi
7:50 AM54 °FLight rain. Fog.5 mph94%29.59 "Hg3 mi
7:20 AM54 °FLight rain. Partly sunny.7 mph94%29.59 "Hg4 mi
6:50 AM54 °FLight rain. Passing clouds.9 mph94%29.59 "Hg4 mi
6:20 AM54 °FLight rain. Passing clouds.9 mph94%29.59 "Hg5 mi
5:50 AM54 °FLight rain. Passing clouds.7 mph94%29.59 "HgN/A
5:20 AM54 °FLight rain. Passing clouds.6 mph94%29.59 "HgN/A
4:50 AM54 °FLight rain. Partly cloudy.5 mph94%29.59 "HgN/A
4:20 AM54 °FLight rain. Passing clouds.7 mph94%29.59 "HgN/A
3:50 AM54 °FCool.6 mph94%29.59 "HgN/A
3:20 AM54 °FClear.6 mph94%29.59 "Hg10 mi
Weather by CustomWeather, © 2015

See weather overviewHow to use our weather pages